Location: Home
(42.5358°N, 72.7383°W)
Time: 16:55:05
(UTC-05:00)

N. Korean satellite - Pass Details

Date: 29 October 2021
Orbit: 446 x 495 km, 97.3° (Epoch: 07 December)

Event Time Altitude Azimuth Distance (km) Brightness Sun altitude
Rises 05:29:50 0° 23° (NNE) 2,584 10.6 -21.0°
Reaches altitude 10° 05:32:10 10° 36° (NE) 1,690 9.8 -20.6°
Maximum altitude 05:35:18 27° 96° (E) 964 8.8 -20.0°
Drops below altitude 10° 05:38:23 10° 156° (SSE) 1,656 9.6 -19.4°
Sets 05:40:38 0° 168° (SSE) 2,520 10.4 -19.0°
